Regional Weather Roundup
Issued by NWS

Home | Current Version | Previous Version | Text Only | Print | Product List | Glossary Off
Versions: 1 2 3 4 5 6 7 8 9 10 11 12 13 14 15 16 17 18 19 20 21 22 23 24 25 26 27 28 29 30 31 32 33 34 35 36 37 38 39 40 41 42 43 44 45 46 47 48 49 50

000
ASUS43 KTOP 121908
RWRKS

WEATHER ROUNDUP FOR KANSAS
NATIONAL WEATHER SERVICE GOODLAND KS
100 PM CST FRI FEB 12 2016

NOTE:  "FAIR" INDICATES FEW OR NO CLOUDS BELOW 12,000 FEET WITH NO
SIGNIFICANT WEATHER AND/OR OBSTRUCTIONS TO VISIBILITY.

KSZ001>006-013>018-027>032-041>047-122000-
NORTHWEST KANSAS

CITY           SKY/WX    TMP DP  RH WIND       PRES   REMARKS
GOODLAND       CLOUDY    41  33  73 E15       30.38S
HAYS           CLOUDY    34  21  60 NE13      30.46F WCI  25
HILL CITY      CLOUDY    36  30  79 NE10      30.46S WCI  28
RUSSELL        CLOUDY    32  27  81 NE10      30.46S WCI  24
$$

KSZ061>065-074>080-084>089-122000-
SOUTHWEST KANSAS

CITY           SKY/WX    TMP DP  RH WIND       PRES   REMARKS
DODGE CITY     SUNNY     44  30  57 NE13      30.40F
ELKHART          N/A     57  31  37 S9          N/A
GARDEN CITY    SUNNY     50  32  50 E8        30.37F
GREAT BEND     CLOUDY    34  23  64 NE15      30.46F WCI  24
LIBERAL        SUNNY     55  34  44 E8        30.38S
PRATT          CLOUDY    34  26  73 N16       30.44R WCI  24
$$

KSZ066>073-081>083-090>101-122000-
SOUTHEAST KANSAS

CITY           SKY/WX    TMP DP  RH WIND       PRES   REMARKS
CHANUTE        SUNNY     43  26  51 NE15      30.41F
COFFEYVILLE    SUNNY     45  25  45 N18G25    30.40F
HUTCHINSON     CLOUDY    35  26  69 N16       30.45S WCI  25
MEDICINE LODGE   N/A     44  29  55 NE14      30.42R
NEWTON         CLOUDY    37  25  60 NE21G26   30.45S WCI  27
PARSONS        CLOUDY    44  26  49 N15G22    30.41F
WICHITA INTL   CLOUDY    40  26  57 N14       30.44S WCI  32
WICHITA JABRA  MOSUNNY   39  26  59 NE14      30.43F WCI  31
WICHITA MCCONL MOSUNNY   38  26  62 N14       30.43  WCI  30
WINFIELD       MOSUNNY   44  28  53 N17G23    30.42F
$$

KSZ007>012-019>026-033>040-048>060-102>105-122000-
NORTHEAST KANSAS

CITY           SKY/WX    TMP DP  RH WIND       PRES   REMARKS
CONCORDIA      CLOUDY    33  24  69 N10       30.48S WCI  25
EMPORIA        SUNNY     40  24  53 N16G23    30.44S WCI  31
LAWRENCE       PTSUNNY   36  21  54 N18G28    30.45S WCI  26
MANHATTAN      CLOUDY    36  24  62 N9        30.48S
MARYSVILLE     CLOUDY    30  23  74 N14       30.49S WCI  20
OLATHE IND     MOSUNNY   38  23  55 N20       30.42F WCI  28
OLATHE EXE     MOSUNNY   38  21  50 NW14G23   30.41F WCI  30
SALINA         CLOUDY    35  24  64 N10       30.49S WCI  27
TOPEKA BILLARD CLOUDY    37  21  52 N18G25    30.46S WCI  27
TOPEKA FORBES  MOSUNNY   40  23  50 N23G29    30.44S WCI  30
$$



USA.gov is the U.S. government's official web portal to all federal, state and local government web resources and services.